Farmville, Virginia, United States (23901)
Lat: 37.30N, Lon: 78.39W
Wx Zone: VAZ060
Local Info
Past Weather Observations for Today

NOTE: This archive is for the closest National Weather Service station to Farmville. Information may differ from the station used for current weather conditions.

Click here for Long-term Archive

Time Weather Temperature Dewpoint Humidity Pressure Winds Precip Visibility
18:55
Clear
75°F / 24°C 73°F / 23°C 94% 30.18 in
(1022 mb)
Calm - 10SM
18:35
Clear
79°F / 26°C 70°F / 21°C 74% 30.18 in
(1022 mb)
Calm - 10SM
18:15
Clear
81°F / 27°C 68°F / 20°C 66% 30.18 in
(1022 mb)
S 4.6 mph
(S 7 kph)
- 10SM
17:55
Clear
81°F / 27°C 72°F / 22°C 74% 30.15 in
(1021 mb)
SSE 3.5 mph
(SSE 6 kph)
- 10SM
17:35
Clear
81°F / 27°C 72°F / 22°C 74% 30.15 in
(1021 mb)
Calm - 10SM
17:15
Clear
81°F / 27°C 72°F / 22°C 74% 30.15 in
(1021 mb)
SE 3.5 mph
(SE 6 kph)
- 10SM
16:55
Partly Cloudy
79°F / 26°C 72°F / 22°C 79% 30.15 in
(1021 mb)
Calm - 10SM
16:35
Partly Cloudy
79°F / 26°C 72°F / 22°C 79% 30.18 in
(1022 mb)
SE 5.8 mph
(SE 9 kph)
- 10SM
16:15
Partly Cloudy
77°F / 25°C 70°F / 21°C 79% 30.18 in
(1022 mb)
E 4.6 mph
(E 7 kph)
- 10SM
15:55
Partly Cloudy
77°F / 25°C 70°F / 21°C 79% 30.18 in
(1022 mb)
ESE 5.8 mph
(ESE 9 kph)
- 10SM
15:35
Partly Cloudy
Thunder Storms
77°F / 25°C 70°F / 21°C 79% 30.18 in
(1022 mb)
SE 5.8 mph
(SE 9 kph)
- 10SM
15:15
Clear
79°F / 26°C 72°F / 22°C 79% 30.18 in
(1022 mb)
Calm - 10SM
14:55
Partly Cloudy
77°F / 25°C 72°F / 22°C 83% 30.18 in
(1022 mb)
NE 5.8 mph
(NE 9 kph)
0.01 in
(0.25 mm)
10SM
14:35
Overcast
73°F / 23°C 73°F / 23°C 100% 30.21 in
(1023 mb)
N 4.6 mph
(N 7 kph)
0.01 in
(0.25 mm)
10SM
14:15
Overcast
72°F / 22°C 72°F / 22°C 100% 30.21 in
(1023 mb)
Calm 0.01 in
(0.25 mm)
7SM
13:55
Overcast
Thunder Storms
72°F / 22°C 70°F / 21°C 94% 30.21 in
(1023 mb)
Calm 0.68 in
(17.27 mm)
4SM
13:35
Overcast
Thunder Storms
72°F / 22°C 70°F / 21°C 94% 30.21 in
(1023 mb)
S 13.8 mph
(S 22 kph)
0.52 in
(13.21 mm)
3/4SM
13:15
Overcast
Light Rain
79°F / 26°C 66°F / 19°C 65% 30.21 in
(1023 mb)
SSE 12.7 mph
(SSE 20 kph)
- 10SM
12:55
Mostly Cloudy
Thunder Storms
84°F / 29°C 68°F / 20°C 58% 30.21 in
(1023 mb)
E 9.2 mph
(E 15 kph)
- 10SM
12:35
Partly Cloudy
88°F / 31°C 66°F / 19°C 49% 30.21 in
(1023 mb)
SE 3.5 mph
(SE 6 kph)
- 10SM
12:15
Mostly Cloudy
88°F / 31°C 64°F / 18°C 46% 30.21 in
(1023 mb)
E 4.6 mph
(E 7 kph)
- 10SM
11:55
Mostly Cloudy
84°F / 29°C 66°F / 19°C 55% 30.21 in
(1023 mb)
Calm - 10SM
11:35
Partly Cloudy
88°F / 31°C 70°F / 21°C 55% 30.21 in
(1023 mb)
E 4.6 mph
(E 7 kph)
- 10SM
11:15
Partly Cloudy
84°F / 29°C 70°F / 21°C 62% 30.24 in
(1024 mb)
SE 3.5 mph
(SE 6 kph)
- 10SM
10:55
Mostly Cloudy
82°F / 28°C 70°F / 21°C 66% 30.24 in
(1024 mb)
Calm - 10SM
10:35
Partly Cloudy
82°F / 28°C 68°F / 20°C 62% 30.24 in
(1024 mb)
Calm - 10SM
10:15
Clear
84°F / 29°C 68°F / 20°C 58% 30.24 in
(1024 mb)
Calm - 10SM
09:55
Clear
81°F / 27°C 68°F / 20°C 66% 30.24 in
(1024 mb)
Calm - 10SM
09:35
Clear
81°F / 27°C 68°F / 20°C 66% 30.24 in
(1024 mb)
Calm - 10SM
09:15
Clear
81°F / 27°C 68°F / 20°C 66% 30.24 in
(1024 mb)
Calm - 10SM
08:55
Clear
79°F / 26°C 66°F / 19°C 65% 30.24 in
(1024 mb)
Calm - 10SM
08:35
Clear
79°F / 26°C 68°F / 20°C 70% 30.24 in
(1024 mb)
Calm - 10SM
08:15
Clear
75°F / 24°C 66°F / 19°C 74% 30.24 in
(1024 mb)
Calm - 10SM
07:55
Partly Cloudy
73°F / 23°C 70°F / 21°C 89% 30.24 in
(1024 mb)
Calm - 10SM
07:35
Partly Cloudy
70°F / 21°C 70°F / 21°C 100% 30.24 in
(1024 mb)
Calm - 10SM
07:15
Clear
70°F / 21°C 70°F / 21°C 100% 30.24 in
(1024 mb)
Calm - 10SM
06:55
Clear
70°F / 21°C 70°F / 21°C 100% 30.24 in
(1024 mb)
Calm - 10SM
06:35
Partly Cloudy
68°F / 20°C 68°F / 20°C 100% 30.24 in
(1024 mb)
Calm - 10SM
06:15
Partly Cloudy
66°F / 19°C 66°F / 19°C 100% 30.21 in
(1023 mb)
Calm - 7SM
05:55
Partly Cloudy
Fog And Mist
66°F / 19°C 66°F / 19°C 100% 30.21 in
(1023 mb)
Calm - 5SM
05:35
Mostly Cloudy
Fog
63°F / 17°C 63°F / 17°C 100% 30.21 in
(1023 mb)
Calm - 1/2SM
05:15
Partly Cloudy
Fog And Mist
63°F / 17°C 63°F / 17°C 100% 30.21 in
(1023 mb)
Calm - 1 1/2SM
04:55
Overcast
Fog
64°F / 18°C 64°F / 18°C 100% 30.18 in
(1022 mb)
Calm - 1/2SM
04:35
Mostly Cloudy
Fog
64°F / 18°C 64°F / 18°C 100% 30.18 in
(1022 mb)
Calm - 1/2SM
04:15
Partly Cloudy
Fog And Mist
64°F / 18°C 64°F / 18°C 100% 30.18 in
(1022 mb)
Calm - 1 1/2SM
03:55
Obscured
Fog And Mist
64°F / 18°C 64°F / 18°C 100% 30.18 in
(1022 mb)
Calm - 3/4SM
03:35
Clear
66°F / 19°C 66°F / 19°C 100% 30.18 in
(1022 mb)
Calm - 7SM
03:15
Clear
64°F / 18°C 64°F / 18°C 100% 30.18 in
(1022 mb)
Calm - 10SM
02:55
Clear
66°F / 19°C 66°F / 19°C 100% 30.18 in
(1022 mb)
Calm - 10SM
02:35
Clear
66°F / 19°C 66°F / 19°C 100% 30.18 in
(1022 mb)
Calm - 10SM
02:15
Clear
66°F / 19°C 66°F / 19°C 100% 30.18 in
(1022 mb)
Calm - 10SM
01:55
Clear
68°F / 20°C 68°F / 20°C 100% 30.18 in
(1022 mb)
Calm - 10SM
01:35
Partly Cloudy
68°F / 20°C 68°F / 20°C 100% 30.18 in
(1022 mb)
Calm - 10SM
01:15
Mostly Cloudy
68°F / 20°C 68°F / 20°C 100% 30.18 in
(1022 mb)
Calm - 10SM
00:55
Overcast
70°F / 21°C 70°F / 21°C 100% 30.18 in
(1022 mb)
Calm - 10SM
00:35
Overcast
70°F / 21°C 70°F / 21°C 100% 30.21 in
(1023 mb)
Calm - 10SM
00:15
Overcast
70°F / 21°C 70°F / 21°C 100% 30.21 in
(1023 mb)
Calm - 10SM
Time Weather Temperature Dewpoint Humidity Pressure Winds Precip Visibility


Weather for websites

WeatherForYou.com, LLC is not responsible for any damages or problems caused by this service. Current weather conditions are obtained from the closest station including government and personal stations which may have varying degrees of accuracy. Weather forecasts are derived from the NOAA NDFD. Like all things, this site belongs to Jesus Christ... He just trusts us to maintain it. If you have any questions or comments email webmaster@weatherforyou.com

Copyright © 2015, WeatherForYou.com LLC. All rights reserved.